Tracking 17630 objects as of 25-May-2016
HD Live streaming from Space Station
objects crossing your sky now

COSMOS 963

Track COSMOS 963 now!
10-day predictions
COSMOS 963 is classified as:


NORAD ID: 10491
Int'l Code: 1977-109A
Perigee: 1,189.6 km
Apogee: 1,212.8 km
Inclination: 82.9 °
Period: 109.3 minutes
Semi major axis: 7572 km
RCS: 3.0327 m2 (large)
Launch date: November 24, 1977
Source: Commonwealth of Independent States (former USSR) (CIS)
Launch site: PLESETSK MISSILE AND SPACE COMPLEX (PKMTR)
Your satellite tracking list
Your tracking list is empty





NASA's NSSDC Master Catalog

Two Line Element Set (TLE):
1 10491U 77109A   16144.73100897 -.00000045 +00000-0 -14957-3 0  9990
2 10491 082.9325 219.3800 0015319 000.7321 115.6776 13.17566738851544
Source of the keplerian elements: AFSPC

N2YO: 503